| time (UTC) | temp C | wind direction | speed KPH | gust KPH | rain 1hr cm | rain 24hr cm | rain mn cm | humidity % | barometer mb |
| 20260506220004 | 23 | 202 | 0.0 | 1.6 | 0.00 | 0.00 | 0.00 | 97 | 1007.6 |
| 20260506215006 | 23 | 202 | 0.0 | 1.6 | 0.00 | 0.00 | 0.00 | 97 | 1007.9 |
| 20260506214006 | 23 | 202 | 0.0 | 1.6 | 0.00 | 0.00 | 0.00 | 97 | 1008.0 |
| 20260506213005 | 24 | 157 | 0.0 | 0.0 | 0.00 | 0.00 | 0.00 | 97 | 1007.9 |
| 20260506212004 | 24 | 225 | 0.0 | 1.6 | 0.00 | 0.00 | 0.00 | 97 | 1007.9 |
| 20260506211004 | 23 | 270 | 0.0 | 1.6 | 0.00 | 0.00 | 0.00 | 97 | 1007.7 |
| 20260506210005 | 23 | 135 | 0.0 | 1.6 | 0.00 | 0.00 | 0.00 | 97 | 1007.7 |
| 20260506205005 | 24 | 135 | 0.0 | 0.0 | 0.00 | 0.00 | 0.00 | 97 | 1007.6 |
| 20260506204004 | 24 | 135 | 1.6 | 1.6 | 0.00 | 0.00 | 0.00 | 97 | 1007.8 |
| 20260506203006 | 23 | 135 | 0.0 | 1.6 | 0.00 | 0.00 | 0.00 | 97 | 1007.8 |
| 20260506202005 | 23 | 135 | 0.0 | 1.6 | 0.00 | 0.00 | 0.00 | 97 | 1007.8 |
| 20260506201004 | 23 | 135 | 0.0 | 1.6 | 0.00 | 0.00 | 0.00 | 97 | 1008.2 |
| 20260506195005 | 24 | 157 | 0.0 | 1.6 | 0.00 | 0.00 | 0.00 | 96 | 1008.1 |
| 20260506194005 | 24 | 202 | 1.6 | 3.2 | 0.00 | 0.00 | 0.00 | 96 | 1007.9 |
| 20260506193005 | 24 | 247 | 1.6 | 3.2 | 0.00 | 0.00 | 0.00 | 96 | 1008.1 |
| 20260506192005 | 24 | 270 | 0.0 | 1.6 | 0.00 | 0.00 | 0.00 | 96 | 1007.9 |
| 20260506191004 | 24 | 180 | 0.0 | 1.6 | 0.00 | 0.00 | 0.00 | 97 | 1008.2 |
| 20260506190005 | 24 | 247 | 4.8 | 6.4 | 0.00 | 0.00 | 0.00 | 97 | 1008.1 |
| 20260506185005 | 24 | 225 | 3.2 | 3.2 | 0.00 | 0.00 | 0.00 | 97 | 1008.1 |
| 20260506184005 | 24 | 180 | 1.6 | 3.2 | 0.00 | 0.00 | 0.00 | 97 | 1008.4 |
| 20260506183005 | 25 | 135 | 1.6 | 3.2 | 0.00 | 0.00 | 0.00 | 97 | 1008.2 |
| 20260506182004 | 25 | 157 | 0.0 | 1.6 | 0.00 | 0.00 | 0.00 | 97 | 1008.2 |
| 20260506181004 | 25 | 157 | 0.0 | 1.6 | 0.00 | 0.00 | 0.00 | 97 | 1008.3 |
| 20260506180006 | 25 | 135 | 1.6 | 3.2 | 0.00 | 0.00 | 0.00 | 96 | 1008.5 |
| 20260506175005 | 25 | 202 | 0.0 | 3.2 | 0.00 | 0.00 | 0.00 | 96 | 1008.4 |
| 20260506174005 | 25 | 202 | 1.6 | 4.8 | 0.00 | 0.00 | 0.00 | 96 | 1008.4 |
| 20260506173004 | 25 | 180 | 6.4 | 9.7 | 0.00 | 0.00 | 0.00 | 97 | 1008.8 |
| 20260506172005 | 25 | 247 | 6.4 | 12.9 | 0.00 | 0.00 | 0.00 | 97 | 1009.1 |
| 20260506171006 | 25 | 247 | 3.2 | 4.8 | 0.00 | 0.00 | 0.00 | 96 | 1009.1 |
| 20260506170004 | 25 | 247 | 3.2 | 4.8 | 0.00 | 0.00 | 0.00 | 96 | 1009.5 |
| 20260506165005 | 24 | 247 | 4.8 | 4.8 | 0.00 | 0.00 | 0.00 | 96 | 1009.5 |
| 20260506164004 | 24 | 247 | 4.8 | 6.4 | 0.00 | 0.00 | 0.00 | 96 | 1009.2 |
| 20260506163003 | 24 | 247 | 4.8 | 4.8 | 0.00 | 0.00 | 0.00 | 97 | 1009.1 |
| 20260506162004 | 24 | 270 | 0.0 | 1.6 | 0.00 | 0.00 | 0.00 | 97 | 1009.2 |
| 20260506161006 | 23 | 315 | 1.6 | 3.2 | 0.00 | 0.00 | 0.00 | 97 | 1009.3 |
| 20260506160004 | 23 | 315 | 4.8 | 9.7 | 0.00 | 0.00 | 0.00 | 97 | 1009.3 |
| 20260506155005 | 24 | 337 | 0.0 | 1.6 | 0.00 | 0.00 | 0.00 | 97 | 1009.5 |
| 20260506154005 | 24 | 337 | 1.6 | 3.2 | 0.00 | 0.00 | 0.00 | 97 | 1009.7 |
| 20260506153004 | 24 | 337 | 1.6 | 4.8 | 0.00 | 0.00 | 0.00 | 97 | 1009.9 |
| 20260506152005 | 25 | 337 | 6.4 | 9.7 | 0.00 | 0.00 | 0.00 | 96 | 1010.0 |
| 20260506151005 | 25 | 337 | 1.6 | 3.2 | 0.00 | 0.00 | 0.00 | 96 | 1009.9 |
| 20260506150004 | 25 | 67 | 1.6 | 3.2 | 0.00 | 0.00 | 0.00 | 96 | 1009.7 |
| 20260506145005 | 26 | 90 | 1.6 | 4.8 | 0.00 | 0.00 | 0.00 | 96 | 1009.5 |
| 20260506144006 | 26 | 90 | 8.0 | 12.9 | 0.00 | 0.00 | 0.00 | 95 | 1008.9 |
| 20260506143005 | 26 | 135 | 9.7 | 14.5 | 0.00 | 0.00 | 0.00 | 93 | 1009.0 |
| 20260506142005 | 26 | 135 | 4.8 | 9.7 | 0.00 | 0.00 | 0.00 | 94 | 1008.9 |
| 20260506141005 | 26 | 90 | 8.0 | 12.9 | 0.00 | 0.00 | 0.00 | 94 | 1008.9 |
| 20260506140004 | 26 | 247 | 3.2 | 3.2 | 0.00 | 0.00 | 0.00 | 93 | 1008.3 |
| 20260506135005 | 26 | 247 | 1.6 | 3.2 | 0.00 | 0.00 | 0.00 | 93 | 1008.5 |
| 20260506134005 | 26 | 247 | 3.2 | 4.8 | 0.00 | 0.00 | 0.00 | 93 | 1008.6 |
| 20260506133004 | 27 | 202 | 8.0 | 9.7 | 0.00 | 0.00 | 0.00 | 92 | 1008.5 |
| 20260506132005 | 27 | 247 | 6.4 | 9.7 | 0.00 | 0.00 | 0.00 | 91 | 1008.3 |
| 20260506131005 | 27 | 247 | 1.6 | 3.2 | 0.00 | 0.00 | 0.00 | 90 | 1008.4 |
| 20260506130005 | 27 | 315 | 0.0 | 0.0 | 0.00 | 0.00 | 0.00 | 89 | 1008.4 |
| 20260506125004 | 27 | 315 | 0.0 | 0.0 | 0.00 | 0.00 | 0.00 | 89 | 1008.2 |
| 20260506124005 | 27 | 315 | 0.0 | 0.0 | 0.00 | 0.00 | 0.00 | 88 | 1008.1 |
| 20260506123004 | 27 | 315 | 0.0 | 1.6 | 0.00 | 0.00 | 0.00 | 88 | 1008.1 |
| 20260506122005 | 28 | 315 | 0.0 | 0.0 | 0.00 | 0.00 | 0.00 | 85 | 1007.7 |
| 20260506121004 | 28 | 315 | 0.0 | 0.0 | 0.00 | 0.00 | 0.00 | 84 | 1007.5 |
| 20260506120005 | 28 | 315 | 0.0 | 1.6 | 0.00 | 0.00 | 0.00 | 83 | 1007.4 |
| 20260506115004 | 28 | 315 | 0.0 | 1.6 | 0.00 | 0.00 | 0.00 | 83 | 1007.2 |
| 20260506114005 | 28 | 315 | 0.0 | 3.2 | 0.00 | 0.00 | 0.00 | 82 | 1007.0 |
| 20260506113006 | 28 | 337 | 0.0 | 1.6 | 0.00 | 0.00 | 0.00 | 83 | 1007.0 |
| 20260506112005 | 28 | 0 | 0.0 | 3.2 | 0.00 | 0.00 | 0.00 | 83 | 1006.7 |
| 20260506111005 | 28 | 337 | 0.0 | 0.0 | 0.00 | 0.00 | 0.00 | 84 | 1006.3 |
| 20260506110004 | 28 | 0 | 1.6 | 3.2 | 0.00 | 0.00 | 0.00 | 82 | 1005.8 |
| 20260506105006 | 28 | 22 | 0.0 | 1.6 | 0.00 | 0.00 | 0.00 | 82 | 1006.2 |
| 20260506104004 | 28 | 22 | 0.0 | 1.6 | 0.00 | 0.00 | 0.00 | 81 | 1006.2 |
| 20260506103006 | 29 | 22 | 0.0 | 1.6 | 0.00 | 0.00 | 0.00 | 81 | 1006.0 |
| 20260506102004 | 29 | 337 | 3.2 | 4.8 | 0.00 | 0.00 | 0.00 | 80 | 1005.6 |
| 20260506101005 | 30 | 292 | 3.2 | 4.8 | 0.00 | 0.00 | 0.00 | 77 | 1005.9 |
| 20260506100007 | 30 | 337 | 1.6 | 4.8 | 0.00 | 0.00 | 0.00 | 76 | 1005.5 |
| 20260506095005 | 30 | 292 | 4.8 | 9.7 | 0.00 | 0.00 | 0.00 | 74 | 1005.5 |
| 20260506094004 | 30 | 315 | 8.0 | 9.7 | 0.00 | 0.00 | 0.00 | 72 | 1005.3 |
| 20260506093005 | 31 | 292 | 9.7 | 9.7 | 0.00 | 0.00 | 0.00 | 70 | 1005.1 |
| 20260506092005 | 31 | 337 | 8.0 | 9.7 | 0.00 | 0.00 | 0.00 | 70 | 1004.9 |
| 20260506091005 | 31 | 292 | 8.0 | 9.7 | 0.00 | 0.00 | 0.00 | 69 | 1004.7 |
| 20260506090005 | 31 | 45 | 4.8 | 9.7 | 0.00 | 0.00 | 0.00 | 70 | 1004.7 |
| 20260506085004 | 31 | 0 | 6.4 | 9.7 | 0.00 | 0.00 | 0.00 | 71 | 1004.8 |
| 20260506084005 | 31 | 315 | 11.3 | 16.1 | 0.00 | 0.00 | 0.00 | 71 | 1005.2 |
| 20260506083006 | 31 | 315 | 8.0 | 9.7 | 0.00 | 0.00 | 0.00 | 70 | 1005.2 |
| 20260506082005 | 30 | 292 | 4.8 | 9.7 | 0.00 | 0.00 | 0.00 | 71 | 1005.1 |
| 20260506081005 | 30 | 0 | 3.2 | 4.8 | 0.00 | 0.00 | 0.00 | 76 | 1005.3 |
| 20260506073005 | 28 | 337 | 3.2 | 4.8 | 0.00 | 0.00 | 0.00 | 81 | 1005.6 |
| 20260506072004 | 28 | 315 | 3.2 | 4.8 | 0.00 | 0.00 | 0.00 | 82 | 1005.4 |
| 20260506071005 | 28 | 315 | 4.8 | 9.7 | 0.00 | 0.00 | 0.00 | 82 | 1005.4 |
| 20260506062005 | 26 | 22 | 1.6 | 3.2 | 0.00 | 0.00 | 0.00 | 94 | 1006.0 |
| 20260506061004 | 26 | 315 | 3.2 | 4.8 | 0.00 | 0.00 | 0.00 | 95 | 1006.3 |
| 20260506051004 | 30 | 292 | 8.0 | 9.7 | 0.00 | 0.00 | 0.00 | 72 | 1007.5 |
| 20260506045005 | 31 | 292 | 8.0 | 14.5 | 0.00 | 0.00 | 0.00 | 70 | 1007.4 |
| 20260506044005 | 32 | 22 | 4.8 | 6.4 | 0.00 | 0.00 | 0.00 | 66 | 1007.5 |
| 20260506043005 | 31 | 45 | 1.6 | 3.2 | 0.00 | 0.00 | 0.00 | 70 | 1007.5 |
| 20260506042004 | 31 | 67 | 4.8 | 6.4 | 0.00 | 0.00 | 0.00 | 68 | 1007.9 |
| 20260506041005 | 31 | 45 | 6.4 | 9.7 | 0.00 | 0.00 | 0.00 | 72 | 1007.9 |
| 20260506040005 | 31 | 135 | 0.0 | 1.6 | 0.00 | 0.00 | 0.00 | 73 | 1007.9 |
| 20260506035005 | 31 | 337 | 1.6 | 4.8 | 0.00 | 0.00 | 0.00 | 72 | 1008.2 |
| 20260506034005 | 30 | 0 | 3.2 | 3.2 | 0.00 | 0.00 | 0.00 | 73 | 1008.3 |
| 20260506033005 | 31 | 45 | 0.0 | 3.2 | 0.00 | 0.00 | 0.00 | 70 | 1008.4 |
| 20260506032005 | 31 | 90 | 0.0 | 3.2 | 0.00 | 0.00 | 0.00 | 67 | 1008.4 |
| 20260506031005 | 31 | 90 | 4.8 | 6.4 | 0.00 | 0.00 | 0.00 | 68 | 1008.5 |
| 20260506030005 | 31 | 90 | 4.8 | 6.4 | 0.00 | 0.00 | 0.00 | 69 | 1008.6 |
| 20260506025005 | 31 | 135 | 1.6 | 3.2 | 0.00 | 0.00 | 0.00 | 69 | 1008.8 |
| 20260506024005 | 31 | 202 | 3.2 | 4.8 | 0.00 | 0.00 | 0.00 | 67 | 1009.0 |
| 20260506023004 | 30 | 90 | 0.0 | 1.6 | 0.00 | 0.00 | 0.00 | 68 | 1009.0 |
| 20260506022005 | 31 | 202 | 1.6 | 3.2 | 0.00 | 0.00 | 0.00 | 68 | 1009.0 |
| 20260506021005 | 31 | 225 | 3.2 | 4.8 | 0.00 | 0.00 | 0.00 | 69 | 1009.1 |
| 20260506020005 | 30 | 202 | 1.6 | 3.2 | 0.00 | 0.00 | 0.00 | 69 | 1009.3 |
| 20260506015005 | 31 | 135 | 3.2 | 6.4 | 0.00 | 0.00 | 0.00 | 68 | 1009.1 |
| 20260506014005 | 30 | 202 | 4.8 | 6.4 | 0.00 | 0.00 | 0.00 | 73 | 1009.3 |
| 20260506013005 | 29 | 247 | 3.2 | 4.8 | 0.00 | 0.00 | 0.00 | 74 | 1009.2 |
| 20260506012005 | 29 | 157 | 4.8 | 9.7 | 0.00 | 0.00 | 0.00 | 73 | 1009.4 |
| 20260506011004 | 29 | 225 | 3.2 | 4.8 | 0.00 | 0.00 | 0.00 | 75 | 1009.1 |
| 20260506010005 | 28 | 247 | 3.2 | 3.2 | 0.00 | 0.00 | 0.00 | 76 | 1009.2 |
| 20260506005004 | 28 | 180 | 4.8 | 6.4 | 0.00 | 0.00 | 0.00 | 79 | 1009.1 |
| 20260506004005 | 28 | 202 | 4.8 | 6.4 | 0.00 | 0.00 | 0.00 | 79 | 1009.2 |
| 20260506003005 | 28 | 202 | 4.8 | 6.4 | 0.00 | 0.00 | 0.00 | 80 | 1009.0 |
| 20260506002004 | 27 | 135 | 6.4 | 9.7 | 0.00 | 0.00 | 0.00 | 82 | 1008.6 |
| 20260506001004 | 27 | 157 | 0.0 | 3.2 | 0.00 | 0.00 | 0.00 | 83 | 1008.6 |
| 20260506000005 | 27 | 157 | 1.6 | 4.8 | 0.00 | 0.00 | 0.00 | 85 | 1008.5 |
| 20260505235005 | 26 | 157 | 3.2 | 4.8 | 0.00 | 0.00 | 0.00 | 86 | 1008.5 |
| 20260505234005 | 26 | 135 | 0.0 | 1.6 | 0.00 | 0.00 | 0.00 | 88 | 1008.5 |
| 20260505233004 | 26 | 157 | 3.2 | 4.8 | 0.00 | 0.00 | 0.00 | 89 | 1008.2 |
| 20260505232005 | 26 | 157 | 0.0 | 1.6 | 0.00 | 0.00 | 0.00 | 90 | 1008.2 |
| 20260505231005 | 26 | 202 | 0.0 | 0.0 | 0.00 | 0.00 | 0.00 | 93 | 1008.2 |
| 20260505230005 | 25 | 202 | 0.0 | 0.0 | 0.00 | 0.00 | 0.00 | 94 | 1008.0 |
| 20260505225005 | 25 | 202 | 0.0 | 1.6 | 0.00 | 0.00 | 0.00 | 94 | 1007.8 |
| 20260505224004 | -17 | 0 | 0.0 | 0.0 | 0.00 | 0.00 | 0.00 | 100 | |
| 20260505223006 | 25 | 247 | 0.0 | 1.6 | 0.00 | 0.00 | 0.00 | 94 | 1007.6 |
| 20260505222004 | 25 | 157 | 0.0 | 1.6 | 0.00 | 0.00 | 0.00 | 94 | 1007.6 |
| 20260505221004 | 25 | 157 | 0.0 | 1.6 | 0.00 | 0.00 | 0.00 | 94 | 1007.7 |